SCP
0 0 0 0 0 0 0 0 0 0 0 0 0 0 0 0 0 0 0 0 0 0 0 0 0 0 0 0 0 0 0 0 0 0 0 0 0 0 0 0 0 0 0 0 0 0 0 0 0
0 0 0 0 0 0 0 0 0 0 0 0 0 0 0 0 0 0 0 0 0 0 0 0 0 0 0 0 0 0 0 0 0 0 0 0 0 0 0 0 0 0 0 0 0 0 0 0 0
0 0 0 0 0 0 0 0 0 0 0 0 0 0 0 0 0 0 0 0 0 0 0 0 0 0 0 0 0 0 0 0 0 0 0 0 0 0 0 0 0 0 0 0 0 0 0 0 0
0 0 0 0 0 0 0 0 0 0 0 0 0 0 0 0 0 0 0 0 0 0 0 0 0 0 0 0 0 0 0 0 0 0 0 0 0 0 0 0 0 0 0 0 0 0 0 0 0
0 0 0 0 0 0 0 0 0 0 0 0 0 0 0 0 0 0 0 0 0 0 0 0 0 0 0 0 0 0 0 0 0 0 0 0 0 0 0 0 0 0 0 0 0 0 0 0 0
0 0 0 0 0 0 0 0 0 0 0 0 0 0 0 0 0 0 0 0 0 0 0 0 0 0 0 0 0 0 0 0 0 0 0 0 0 0 0 0 0 0 0 0 0 0 0 0 0
0 0 0 0 0 0 0 0 0 0 0 0 0 0 0 0 0 0 0 0 0 0 0 0 0 0 0 0 0 0 0 0 0 0 0 0 0 0 0 0 0 0 0 0 0 0 0 0 0
0 0 0 0 0 0 0 0 0 0 0 0 0 0 0 0 0 0 0 0 0 0 0 0 0 0 0 0 0 0 0 0 0 0 0 0 0 0 0 0 0 0 0 0 0 0 0 0 0
0 0 0 0 0 0 0 0 0 0 0 0 0 0 0 0 0 0 0 0 0 0 -0 0 0 0 0 0 0 0 0 0 0 0 0 0 0 0 0 0 0 0 0 0 0 0 0 0 0
0 0 0 0 0 0 0 0 0 0 0 0 0 0 0 0 0 0 0 0 0 -0 -0 0 0 0 0 0 0 0 0 0 0 0 0 0 0 0 0 0 0 0 0 0 0 0 0 0 0
0 0 0 0 0 0 0 0 0 0 0 0 0 0 0 0 0 0 0 0 0 0 0 0 0 0 0 0 0 0 0 0 0 0 0 0 0 0 0 0 0 0 0 0 0 0 0 0 0
0 0 0 0 -0 0 0 0 0 0 0 0 0 0 0 0 0 0 0 0 0 0 0 0 0 0 0 0 0 0 0 0 0 0 0 0 0 0 0 0 0 0 0 0 0 0 0 0 0
0 0 0 0 0 0 0 0 0 0 0 0 0 0 0 0 0 0 0 0 0 0 0 0 0 0 0 0 0 0 0 0 0 0 0 0 0 0 0 0 0 0 0 0 0 0 0 0 0
0 0 0 0 0 0 0 0 0 0 0 0 0 0 0 0 0 0 0 0 0 0 -0 0 0 0 0 0 0 0 0 0 0 0 0 0 0 0 0 0 0 0 0 0 0 0 0 0 0
0 0 0 0 0 0 0 0 0 0 0 0 0 0 0 0 0 0 0 0 0 0 0 -0 0 0 0 0 0 0 0 0 0 0 0 0 0 0 0 0 0 0 0 0 0 0 0 0 0
0 0 0 0 0 0 0 0 0 0 0 0 0 0 0 0 0 0 0 0 0 0 0 0 0 0 0 0 0 0 0 0 0 0 0 0 0 -0 -0 -0 -0 0 0 0 0 0 0 0 0
0 0 0 0 0 0 0 0 0 0 0 0 0 0 0 0 0 0 0 0 0 0 0 0 0 0 0 0 0 0 0 0 0 0 0 0 0 -0 -0 -0 -0 -0 0 0 0 0 0 0 0
0 0 0 0 0 0 0 0 0 0 0 0 0 0 0 0 0 0 0 0 0 0 0 0 0 0 0 0 0 0 0 0 0 0 0 0 0 -0 -0 -0 -0 0 0 0 0 0 0 0 0
0 0 0 0 0 0 0 0 0 0 0 0 0 0 0 0 0 0 0 0 0 0 0 0 0 0 0 0 0 0 0 0 0 0 0 0 -0 -0 -0 -0 0 0 0 0 0 0 0 0 0
0 0 0 0 0 0 0 0 0 0 0 0 0 0 0 0 0 0 0 0 0 0 0 0 0 0 0 0 0 0 0 0 0 0 0 0 -0 -0 -0 -0 0 0 0 0 0 0 0 0 0
0 0 0 0 0 0 0 0 0 0 0 0 0 0 0 0 0 0 0 0 0 0 0 0 0 0 0 0 0 0 0 0 0 0 0 0 -0 -0 0 0 0 0 0 0 0 0 0 0 0
0 0 0 0 0 0 0 0 0 0 0 0 0 0 0 0 0 0 0 0 0 0 0 0 0 0 0 0 0 0 0 0 0 0 0 0 0 0 0 0 0 0 0 0 0 0 0 0 0
0 0 0 0 0 0 0 0 0 0 0 0 0 0 0 0 0 0 0 0 0 0 0 0 0 0 0 0 0 0 0 0 0 0 0 0 0 0 0 0 0 0 0 0 0 0 0 0 0
0 0 0 0 0 0 0 0 0 0 0 0 0 0 0 0 0 0 0 0 0 0 0 0 0 0 0 0 0 0 0 0 0 0 0 0 0 0 0 0 0 0 0 0 0 0 0 0 0
0 0 0 0 0 0 0 0 0 0 0 0 -0 -0 0 0 0 0 0 0 0 0 0 0 0 0 0 0 0 0 0 0 0 0 0 0 0 0 0 0 0 0 0 0 0 0 0 0 0
0 0 0 0 0 0 0 0 0 0 0 0 -0 -0 0 0 0 0 0 0 0 0 0 0 0 0 0 0 0 0 0 0 0 0 0 0 0 0 0 0 0 0 0 0 0 0 0 0 0
0 0 0 0 0 0 0 0 0 0 0 0 -0 -0 0 0 0 0 0 0 0 0 0 0 0 0 0 0 0 0 0 0 0 0 0 0 0 0 0 0 0 0 0 0 0 0 0 0 0
0 0 0 0 0 0 0 0 0 0 0 0 0 0 -0 0 0 0 0 0 0 0 0 0 0 0 0 0 0 0 0 0 0 0 0 0 0 0 0 0 0 0 0 -0 0 0 0 0 0
0 0 0 0 0 0 0 0 0 0 0 0 0 0 0 0 0 0 0 0 0 0 0 0 0 0 0 0 0 0 0 0 0 0 0 0 0 0 0 0 0 0 0 -0 0 0 0 0 0
0 0 0 0 0 0 0 0 0 0 0 0 0 0 0 0 0 0 0 0 0 0 0 0 0 0 0 0 0 0 0 0 0 0 0 0 0 0 0 0 0 0 0 0 0 0 0 0 0
Wind_Speed
1 4 3 3 3 2 2 2 1 1 1 0 1 3 4 3 1 1 0 5 6 6 4 6 8 7 7 6 6 5 5 4 4 3 3 2 2 2 2 2 1 1 1 1 1 2 1 1 1
3 3 3 3 3 1 3 2 1 2 1 1 2 3 3 3 3 3 2 4 7 6 5 5 8 7 6 6 5 5 4 4 3 2 2 1 1 1 0 0 0 1 1 2 2 2 2 2 2
3 3 3 3 1 2 2 2 1 1 1 1 2 3 3 3 4 4 3 7 7 6 4 5 8 7 6 6 5 4 3 3 2 2 1 1 1 1 1 2 2 3 3 3 3 3 3 3 3
3 3 3 2 2 4 3 2 1 1 1 2 3 3 2 1 5 5 7 8 7 5 4 4 7 6 6 5 4 3 2 2 1 1 1 2 2 2 3 3 4 4 5 5 5 5 5 5 4
3 3 2 1 4 3 2 2 1 0 1 2 2 3 2 2 5 9 9 7 7 5 3 3 7 6 5 4 3 2 1 1 1 2 2 2 3 4 5 5 5 6 6 6 6 6 6 6 6
3 3 2 2 3 3 1 1 0 1 1 2 3 3 1 2 6 8 8 6 6 5 4 3 6 6 5 4 3 1 1 1 1 2 2 3 4 5 5 6 6 6 6 6 6 6 7 6 7
3 3 2 2 2 3 1 1 1 2 1 2 3 4 1 2 5 7 6 5 4 4 3 2 1 2 3 3 2 1 1 1 2 3 3 4 5 5 6 6 6 7 6 6 6 6 7 7 7
3 3 1 1 2 3 1 1 1 1 1 2 4 5 4 6 6 6 5 3 3 3 3 2 1 1 0 0 2 1 1 2 3 4 5 5 5 6 7 6 7 7 7 6 6 6 7 7 6
3 3 2 3 3 2 1 1 1 0 3 2 2 3 4 9 9 6 4 2 2 3 2 3 2 2 1 1 2 2 3 4 5 5 6 5 3 4 4 6 6 6 6 6 6 6 7 6 4
3 3 4 2 2 1 1 1 1 1 1 1 1 1 6 10 10 8 6 6 5 5 4 4 4 3 2 1 0 1 2 2 3 2 3 2 2 3 4 6 6 6 6 5 5 6 5 3 1
3 4 2 1 1 0 1 1 1 2 2 5 5 6 10 9 9 9 8 7 7 5 4 4 4 3 3 1 1 0 1 1 2 2 2 2 2 2 3 2 3 4 4 3 4 4 2 1 1
2 2 2 1 1 1 1 2 1 3 6 4 5 9 11 11 10 10 9 7 5 5 5 4 4 3 2 2 1 1 0 0 1 1 2 1 1 2 2 2 2 2 1 2 2 1 2 1 1
2 1 1 1 2 2 2 3 3 6 5 2 5 9 11 11 9 7 7 6 5 5 4 4 4 4 3 2 1 1 1 1 1 1 1 1 1 1 2 2 2 2 2 1 1 1 2 1 2
3 1 1 1 1 1 2 3 3 7 3 5 7 9 10 10 9 7 6 7 6 6 5 4 4 4 3 2 2 1 1 1 1 1 1 2 1 1 1 2 2 2 2 2 1 2 1 1 1
1 1 1 1 1 1 0 5 5 5 4 5 6 7 9 9 8 9 9 8 7 6 5 4 5 4 3 3 2 2 1 1 1 1 2 2 2 1 1 2 2 2 2 2 1 1 1 1 1
2 2 1 3 1 1 2 5 6 1 5 5 6 6 7 8 9 8 8 7 6 6 5 5 5 5 4 3 2 2 2 2 1 1 1 2 2 2 1 2 2 3 2 2 1 1 1 1 1
2 2 1 2 1 1 2 6 5 1 4 5 6 7 7 7 8 8 7 7 7 7 7 6 5 5 4 3 2 2 2 1 1 1 1 2 2 2 2 2 2 3 2 2 2 1 0 0 1
3 2 1 2 1 1 2 7 8 3 5 7 6 6 7 8 10 7 6 7 7 7 6 6 5 4 4 3 2 2 2 1 1 1 1 2 2 2 2 2 3 3 2 2 2 1 1 0 1
4 3 1 2 1 2 3 7 10 5 4 6 6 6 8 9 6 5 5 6 7 7 7 7 6 5 4 2 2 2 1 0 1 1 1 2 2 2 2 2 3 3 2 2 3 1 1 1 1
3 2 0 2 1 1 2 6 7 3 4 6 7 7 8 7 4 5 5 6 8 8 8 7 7 6 5 3 2 2 2 1 1 1 1 2 2 2 2 2 2 2 2 3 3 2 1 1 1
1 2 2 1 2 3 3 7 6 4 3 2 3 4 6 8 8 7 7 7 7 8 9 8 7 6 5 4 3 2 2 2 1 1 2 2 2 2 2 2 2 2 2 2 2 2 1 0 1
1 2 2 1 3 3 3 3 7 6 6 4 3 2 5 6 6 6 7 8 9 9 7 7 7 6 5 5 4 4 3 2 2 1 1 2 2 2 2 2 2 2 2 2 3 2 1 1 1
2 1 2 2 3 3 4 2 8 6 6 6 5 4 4 5 6 8 8 8 7 7 7 6 6 5 5 4 5 4 3 2 1 1 1 2 2 2 2 1 2 2 2 2 3 2 2 1 1
2 4 5 5 5 4 3 2 5 4 4 7 7 5 4 3 4 5 4 5 5 5 6 6 6 5 5 5 5 5 5 3 2 1 1 2 2 2 2 1 1 2 2 2 2 2 2 1 1
3 5 5 6 5 2 3 1 6 6 4 5 7 7 4 2 2 4 5 6 6 7 7 7 7 6 6 5 5 5 5 4 4 3 2 2 2 2 2 1 1 1 2 2 1 2 2 2 2
3 6 6 3 2 3 4 1 6 5 5 4 4 4 4 3 2 3 5 6 6 7 7 7 8 7 6 6 5 4 4 3 3 3 3 3 3 3 2 1 1 2 2 1 1 1 1 2 2
5 3 5 7 2 2 4 5 7 6 8 9 9 8 7 5 4 3 2 3 5 6 7 8 8 7 7 7 5 5 5 4 4 3 3 3 3 2 2 2 1 1 1 1 1 1 2 2 2
4 7 5 5 4 2 4 3 4 6 7 8 9 8 8 7 5 4 2 2 3 4 4 5 7 7 7 6 6 5 5 5 4 3 4 4 3 2 2 2 2 1 1 0 1 1 1 2 2
3 4 6 5 5 5 0 4 3 3 4 5 6 6 7 7 6 5 3 2 1 2 3 5 5 5 5 6 6 5 5 5 4 4 4 4 3 3 3 3 2 2 1 1 0 0 0 1 1
2 4 6 5 2 3 4 5 4 2 2 3 5 6 7 7 6 5 4 3 1 1 2 4 5 5 6 6 6 6 5 4 5 5 5 4 4 3 3 3 3 2 2 2 2 1 1 1 0
Wind_Direction
246 92 82 57 53 47 276 256 219 254 267 343 53 78 91 86 98 131 115 132 129 131 137 142 140 134 128 124 119 112 104 100 99 98 101 100 99 102 109 119 124 137 163 166 168 173 175 173 150
112 100 67 62 73 4 276 254 240 239 186 144 85 84 83 74 80 105 119 136 131 131 129 141 143 136 132 126 118 111 104 98 92 85 79 72 64 65 36 327 270 258 251 243 237 225 220 228 232
107 76 85 77 109 216 261 270 246 325 184 161 65 57 94 126 129 148 157 138 127 129 129 148 146 141 137 130 123 115 106 92 79 61 41 24 353 325 307 294 285 276 270 266 260 253 246 248 247
93 58 65 74 245 236 235 263 250 12 73 72 110 80 61 99 153 154 140 137 132 134 137 155 151 147 141 134 126 113 97 74 51 23 0 345 334 323 317 305 294 287 282 276 271 265 257 259 260
68 84 76 344 266 262 251 262 210 141 70 58 102 108 56 12 117 132 139 142 145 149 149 159 157 151 147 142 137 127 100 54 19 2 352 336 322 317 312 307 304 297 289 281 279 277 267 263 264
72 77 101 248 273 297 301 304 155 106 119 114 113 115 94 103 128 143 148 152 156 157 155 159 168 161 161 159 157 148 117 65 6 351 343 333 326 321 314 307 302 298 293 288 283 282 277 274 274
118 120 175 234 288 301 285 269 130 111 151 168 139 119 130 164 161 150 148 146 148 149 150 156 159 170 178 180 183 191 209 309 332 336 333 329 326 323 319 312 305 301 293 290 288 278 275 275 276
129 117 166 242 250 272 303 303 155 153 176 138 134 147 187 190 162 135 124 126 141 151 160 167 167 158 161 314 260 251 293 317 333 339 340 344 346 340 332 327 315 309 300 295 296 287 278 274 275
99 91 214 228 218 266 339 347 355 307 124 132 170 185 187 145 139 127 123 131 177 192 190 187 194 206 216 261 289 326 337 352 358 354 354 8 358 343 330 326 320 319 311 305 306 301 291 280 278
112 156 222 220 199 258 331 336 311 37 81 129 105 103 128 137 152 159 172 188 199 207 209 200 200 207 213 243 11 351 358 7 7 358 359 1 351 337 343 338 343 341 336 333 329 326 320 314 312
157 192 223 215 172 172 317 319 265 155 218 210 194 165 148 154 167 179 188 193 202 206 205 195 198 199 198 209 214 324 4 7 4 3 5 9 10 354 358 354 349 349 350 350 345 349 343 327 274
171 227 209 207 183 152 256 304 297 217 229 221 182 160 159 170 182 190 193 197 196 197 206 196 187 182 190 183 182 163 137 48 28 5 18 37 23 7 354 352 335 337 331 329 332 316 308 292 267
187 251 239 231 212 226 239 256 260 251 246 187 147 154 171 184 194 201 199 195 193 197 202 196 181 177 171 161 179 139 137 116 77 29 25 54 50 12 357 343 338 333 329 323 315 308 303 293 274
191 207 290 276 209 227 247 270 233 256 192 157 165 177 187 196 199 196 195 198 199 199 196 184 174 173 161 160 160 141 133 128 82 43 29 54 64 34 6 352 344 337 328 312 295 290 284 278 268
133 96 340 286 219 233 161 292 237 241 153 170 188 194 198 205 203 205 201 198 196 191 181 176 173 161 157 157 160 135 136 117 90 48 30 41 44 35 20 355 340 328 322 319 311 308 301 285 276
92 90 301 283 209 209 148 274 276 218 173 199 202 203 209 215 217 218 205 195 184 172 169 180 167 152 157 155 144 129 124 113 90 48 24 24 27 32 26 2 339 329 330 333 320 312 314 315 312
64 132 228 297 227 177 176 256 279 186 186 216 216 213 217 223 230 224 204 190 180 173 167 168 154 154 157 144 119 106 102 98 72 43 22 12 17 26 30 2 338 341 347 347 330 353 283 287 308
177 171 214 252 250 179 228 268 285 266 212 224 224 219 220 225 231 219 198 184 173 165 163 161 151 151 136 111 90 69 66 49 31 22 5 10 10 16 20 7 356 360 4 356 353 344 346 307 300
146 146 213 259 228 188 251 275 285 281 232 232 229 222 225 233 235 206 187 171 159 158 164 165 159 162 147 132 133 125 159 286 329 328 348 5 6 9 17 11 3 7 8 345 341 349 8 1 8
108 107 308 305 256 197 292 291 292 278 238 227 223 221 223 230 223 201 183 172 172 172 173 171 173 172 175 160 150 150 150 186 251 310 337 357 5 1 10 18 1 359 358 358 1 10 6 2 29
80 170 199 248 2 33 1 336 334 328 318 283 230 219 216 217 215 202 187 185 179 181 180 182 181 179 178 155 117 88 64 38 10 340 326 333 347 359 11 5 358 357 6 348 343 1 36 0 355
279 246 190 60 50 0 32 349 315 326 336 346 321 266 233 221 209 201 192 189 191 190 180 177 176 177 175 163 160 153 158 185 227 243 282 309 330 346 357 357 354 356 359 350 334 14 12 85 43
223 12 107 89 98 36 23 63 304 341 353 331 319 293 258 229 207 207 202 196 192 179 175 174 171 176 175 173 172 161 165 193 216 249 293 310 323 331 336 348 352 352 349 350 355 5 22 49 91
138 66 57 51 67 48 357 70 305 312 303 311 317 310 280 246 215 210 199 180 182 172 169 168 172 182 179 176 175 176 179 185 195 232 269 298 310 314 320 336 349 336 334 341 348 3 25 32 59
88 80 40 22 28 302 314 108 261 280 294 286 296 305 304 266 205 199 195 192 189 182 180 175 178 188 185 181 188 192 191 189 201 213 226 246 278 283 292 320 317 314 317 328 352 22 24 26 48
131 125 139 148 178 298 349 291 267 290 315 329 332 337 352 340 272 228 215 204 199 194 185 181 187 193 187 190 198 198 195 194 208 212 211 223 235 251 266 271 280 303 322 344 13 33 24 39 38
122 111 145 122 118 41 330 317 316 350 5 8 10 10 356 338 321 293 261 221 207 199 194 190 190 194 195 197 197 200 200 203 213 218 219 230 239 247 245 242 261 297 321 344 29 31 25 40 39
113 136 96 94 113 54 336 332 303 331 340 351 359 353 344 348 348 337 305 253 226 209 194 186 193 199 198 195 199 204 205 210 212 209 224 232 241 242 235 234 237 260 292 324 53 31 11 48 32
99 83 94 94 129 134 142 286 264 275 314 339 341 342 343 343 341 339 332 300 232 188 180 185 194 201 202 202 203 205 209 209 206 213 226 226 232 228 227 224 222 225 233 233 180 206 58 58 26
131 141 139 133 162 140 147 265 303 319 328 352 351 353 357 356 354 353 354 2 5 232 205 199 199 206 212 205 201 208 210 203 209 222 226 218 224 227 225 216 217 224 218 206 200 211 176 158 150